Regional Weather Roundup
Issued by NWS Little Rock, AR

Home | Current Version | Previous Version | Graphics & Text | Print | Product List | Glossary On
Versions: 1 2 3 4 5 6 7 8 9 10 11 12 13 14 15 16 17 18 19 20 21 22 23 24 25 26 27 28 29 30 31 32 33 34 35 36 37 38 39 40 41 42 43 44 45 46 47 48 49 50
000
ASUS44 KLZK 080405
RWRLZK

WEATHER ROUNDUP FOR ARKANSAS
NATIONAL WEATHER SERVICE LITTLE ROCK AR
1000 PM CST SUN FEB 07 2016

NOTE: "FAIR" INDICATES FEW OR NO CLOUDS BELOW 12,000 FEET WITH NO
SIGNIFICANT WEATHER AND/OR OBSTRUCTIONS TO VISIBILITY.

ARZ001-003-010-029-080500-
NORTHWEST ARKANSAS

CITY           SKY/WX    TMP DP  RH WIND       PRES   REMARKS
FAYETTEVILLE   PTCLDY    41  20  43 NW8       30.09S
FORT SMITH     CLEAR     44  28  53 W10       30.12R
HARRISON       CLEAR     43  17  35 NW7G18    30.03S
BENTONVILLE    PTCLDY    39  14  35 W8        30.09S
ROGERS         CLEAR     42  14  32 W12       30.07F
SILOAM SPGS    MOCLDY    41  16  36 NW9       30.10S
HIGHFILL       CLEAR     42  16  34 W9        30.08S
$$

ARZ004-005-016-080500-
NORTH CENTRAL ARKANSAS

CITY           SKY/WX    TMP DP  RH WIND       PRES   REMARKS
BATESVILLE     CLOUDY    48  25  40 W6        30.01F
FLIPPIN        CLEAR     46  18  31 W14       30.00S
MTN HOME       CLEAR     44  24  45 VRB5      30.00S
$$

ARZ040-041-080500-
WEST CENTRAL ARKANSAS

CITY           SKY/WX    TMP DP  RH WIND       PRES   REMARKS
MENA           CLOUDY    45  30  57 W5        30.11S
MOUNT IDA      CLOUDY    49  28  44 CALM      30.06F
$$

ARZ009-017-025-026-028-080500-
NORTHEAST ARKANSAS

CITY           SKY/WX    TMP DP  RH WIND       PRES   REMARKS
CORNING        FAIR      46  28  49 W10       29.97S
JONESBORO      PTCLDY    49  29  46 W10       29.98S
NEWPORT        MOCLDY    49  29  46 W6        30.01F
WALNUT RIDGE   CLOUDY    46  25  42 W7        29.98F
BLYTHEVILLE    MOCLDY    49  33  54 W9        29.96S
$$

ARZ022-023-033-042-044-080500-
CENTRAL ARKANSAS

CITY           SKY/WX    TMP DP  RH WIND       PRES   REMARKS
LITTLE ROCK    CLOUDY    54  29  38 W14       30.06R
N LITTLE ROCK  CLOUDY    51  32  48 W6        30.06R
JACKSONVILLE   CLOUDY    51  31  45 W7        30.04R
SEARCY         MOCLDY    50  32  50 NW5       30.04S
HOT SPRINGS    CLOUDY    52  29  41 W5        30.08S
RUSSELLVILLE   MOCLDY    47  27  45 W6        30.06S
CLINTON        FAIR      36  32  87 CALM      30.04F
$$

ARZ036-080500-
EAST ARKANSAS

CITY           SKY/WX    TMP DP  RH WIND       PRES   REMARKS
WEST MEMPHIS   CLEAR     48  34  58 W8        29.98S
$$

ARZ050-053-066-070-073-080500-
SOUTHWEST ARKANSAS

CITY           SKY/WX    TMP DP  RH WIND       PRES   REMARKS
ARKADELPHIA    FAIR      47  33  58 W6        30.10S
CAMDEN         PTCLDY    48  28  46 W5        30.09S
TEXARKANA      CLEAR     54  33  45 W14       30.13R
EL DORADO      CLEAR     46  28  49 SW3       30.11R
DE QUEEN       CLEAR     40  32  73 CALM      30.12S
$$

ARZ056-057-069-080500-
SOUTHEAST ARKANSAS

CITY           SKY/WX    TMP DP  RH WIND       PRES   REMARKS
PINE BLUFF     PTCLDY    49  29  46 W8        30.06R
STUTTGART      MOCLDY    48  34  57 W10       30.03F
MONTICELLO     CLEAR     50  27  40 SW8       30.06S

$$





USA.gov is the U.S. government's official web portal to all federal, state and local government web resources and services.